Location: Harburg
(48.7667°N, 10.6667°E)
Time: 23:23:31
(UTC+00:00)

CENTAUR R/B - Pass Details

Date: 18 September 2020
Orbit: 753 x 1435 km, 63.5° (Epoch: 26 October)

Event Time Altitude Azimuth Distance (km) Brightness Sun altitude
Rises 21:14:35 0° 315° (NW) 4,203 6.8 -33.8°
Reaches altitude 10° 21:17:33 10° 306° (NW) 3,318 6.0 -34.1°
Maximum altitude 21:24:40 34° 246° (WSW) 2,133 4.2 -34.8°
Enters shadow 21:25:43 33° 233° (SW) 2,179 4.2 -34.9°
